Hourly Data Report for April 17, 2017

CLYDE RIVER A
NUNAVUT

70°29'09.000" N
68°31'01.000" W
26.50 m
2400804
71090
YCY

Download Data

Hourly Data (April 2017)
Hourly Data Report for April 17, 2017
TIME
LST
Temp Definition
°C
Dew Point Definition
°C
Rel Hum Definition
%
Precip. Amount Definition
mm

Wind Dir Definition
10's deg

Wind Spd Definition
km/h
Visibility Definition
km
Stn Press Definition
kPa
Hmdx Definition


Wind Chill Definition


Weather Definition


00:00 -16.0 -19.0 78 0.0 26 9 16.1 101.73   -22 LegendNANA
01:00 -16.4 -19.4 78 0.0 29 11 16.1 101.68   -23 LegendNANA
02:00 -16.9 -19.6 80 0.0 28 8 16.1 101.63   -23 LegendNANA
03:00 -17.1 -19.6 81 0.0 34 5 16.1 101.60   -21 LegendNANA
04:00 -16.4 -19.1 80 0.0 32 15 16.1 101.54   -25 Snow
05:00 -16.8 -19.3 81 0.0 32 28 16.1 101.46   -28 Snow
06:00 -17.2 -19.7 81 0.0 32 28 16.1 101.43   -29 Snow
07:00 -17.7 -20.1 82 0.0 33 26 16.1 101.38   -29 LegendNANA
08:00 -17.1 -19.5 82 0.0 33 30 3.6 101.31   -29 Snow
09:00 -17.0 -19.2 83 0.0 34 28 0.6 101.24   -28 Moderate Snow
10:00 -16.9 -19.1 83 0.0 32 32 1.6 101.16   -29 Snow
11:00 -16.8 -19.4 80 0.0 33 30 1.6 101.08   -28 Snow
12:00 -16.7 -20.2 75 0.0 31 30 12.9 101.02   -28 Snow
13:00 -16.3 -19.0 80 0.0 31 30 4.8 100.90   -28 Snow
14:00 -15.8 -18.7 79 0.0 33 30 2.0 100.83   -27 Snow
15:00 -16.0 -18.5 82 0.0 31 34 3.2 100.77   -28 Snow
16:00 -16.0 -18.6 80 0.0 31 35 4.0 100.73   -28 Snow
17:00 -16.6 -19.3 80 0.0 32 28 1.6 100.71   -28 Snow
18:00 -17.6 -20.1 81 0.0 31 30 4.0 100.67   -29 Snow
19:00 -20.1 -23.0 78 0.0 29 24 16.1 100.64   -32 LegendNANA
20:00 -22.4 -24.9 80 0.0 29 18 16.1 100.65   -33 LegendNANA
21:00 -20.5 -22.8 82 0.0 29 21 9.7 100.64   -31 Snow
22:00 -22.6 -25.0 81 0.0 29 24 16.1 100.60   -35 LegendNANA
23:00 -24.3 -26.7 81 0.0 30 24 16.1 100.55   -37 LegendNANA

Notes on Data Quality.

Legend

  • E = Estimated
  • M = Missing
  • NA = Not Available*
  • [empty] = Indicates an unobserved value
Date modified: